Location: Caltech
(34.1382°N, 118.1253°W)
Time: 07:06:42
(UTC-07:00)

TMSAT-1 - Visible Passes

Search period start: 21 September 2014 00:00
Search period end: 01 October 2014 00:00
Orbit: 809 x 813 km, 98.4° (Epoch: 18 September)

Date Brightness Start Highest point End Pass type
(mag) Time Alt. Az. Time Alt. Az. Time Alt. Az.
21 Sep 11.2 03:18:00 10° NNE 03:20:17 23° NE 03:20:17 23° NE visible
21 Sep 10.4 04:58:16 10° NNW 05:01:26 23° NW 05:01:26 23° NW visible
22 Sep 11.8 02:55:25 10° NE 02:56:31 14° ENE 02:56:31 14° ENE visible
22 Sep 10.1 04:34:22 10° N 04:37:40 32° NNW 04:37:40 32° NNW visible
23 Sep 10.2 04:10:45 10° N 04:13:54 37° N 04:13:54 37° N visible
24 Sep 10.6 03:47:24 10° NNE 03:50:08 31° NNE 03:50:08 31° NNE visible
24 Sep 11.0 05:29:43 10° NW 05:31:18 13° NW 05:31:18 13° NW visible
25 Sep 11.2 03:24:18 10° NNE 03:26:22 22° NE 03:26:22 22° NE visible
25 Sep 10.6 05:04:58 10° NNW 05:07:32 19° NW 05:07:32 19° NW visible
26 Sep 11.8 03:01:34 10° NE 03:02:36 14° NE 03:02:36 14° NE visible
26 Sep 10.4 04:40:56 10° N 04:43:45 27° NNW 04:43:45 27° NNW visible
27 Sep 10.4 04:17:15 10° N 04:19:59 30° N 04:19:59 30° N visible
28 Sep 10.7 03:53:49 10° NNE 03:56:12 28° NNE 03:56:12 28° NNE visible
28 Sep 11.1 05:37:05 10° NW 05:37:22 10° NW 05:37:22 10° NW visible
29 Sep 11.3 03:30:38 10° NNE 03:32:26 21° NE 03:32:26 21° NE visible
29 Sep 10.8 05:11:42 10° NNW 05:13:35 16° NW 05:13:35 16° NW visible
30 Sep 11.8 03:07:46 10° NE 03:08:39 14° NE 03:08:39 14° NE visible
30 Sep 10.6 04:47:32 10° N 04:49:49 22° NNW 04:49:49 22° NNW visible
